Hourly Data Report for September 27, 2017

All times are specified in Local Standard Time (LST). Add 1 hour to adjust for Daylight Saving Time where and when it is observed.

TORONTO INTL A
ONTARIO

43°40'36.000" N
79°37'50.000" W
173.40 m
6158731
71624
YYZ

Download Data

Hourly Data (September 2017)
Hourly Data Report for September 27, 2017
Temp Definition
°C
Dew Point Temp Definition
°C
Rel Hum Definition
%
Wind Dir Definition
10's deg

Wind Spd Definition
km/h
Visibility Definition
km
Stn Press Definition
kPa
Hmdx Definition


Wind Chill Definition


Weather Definition


TIME
00:00 Legend Double Dagger 24.3 16.0 59 21 5 24.1 99.22 29   LegendNANA
01:00 Legend Double Dagger 23.1 15.7 63 24 9 24.1 99.22 28   Clear
02:00 Legend Double Dagger 22.0 16.1 69 36 2 24.1 99.17 27   LegendNANA
03:00 Legend Double Dagger 22.1 15.8 67 23 11 24.1 99.14 27   LegendNANA
04:00 Legend Double Dagger 21.5 15.9 70 24 9 24.1 99.13 26   Mainly Clear
05:00 Legend Double Dagger 21.1 15.8 71 26 5 24.1 99.10 26   LegendNANA
06:00 Legend Double Dagger 21.0 16.3 74 23 8 24.1 99.10 26   LegendNANA
07:00 Legend Double Dagger 20.9 17.4 80 27 10 24.1 99.08 26   Mainly Clear
08:00 Legend Double Dagger 24.4 18.0 67 24 7 24.1 99.05 30   LegendNANA
09:00 Legend Double Dagger 27.1 18.0 57 24 12 24.1 99.03 33   LegendNANA
10:00 Legend Double Dagger 29.3 17.7 49 24 17 24.1 99.02 35   Mostly Cloudy
11:00 Legend Double Dagger 28.3 18.2 54 31 23 24.1 99.02 34   LegendNANA
12:00 Legend Double Dagger 29.6 18.2 50 28 27 24.1 99.00 36   LegendNANA
13:00 Legend Double Dagger 25.5 17.6 61 30 30 24.1 99.04 31   Rain Showers
14:00 Legend Double Dagger 24.0 17.8 68 30 33 24.1 99.05 30   LegendNANA
15:00 Legend Double Dagger 23.1 16.0 64 32 33 24.1 99.08 28   LegendNANA
16:00 Legend Double Dagger 23.4 13.6 54 31 36 24.1 99.09 27   Mostly Cloudy
17:00 Legend Double Dagger 21.2 12.0 55 31 40 24.1 99.17     LegendNANA
18:00 Legend Double Dagger 19.7 10.1 53 31 26 24.1 99.24     LegendNANA
19:00 Legend Double Dagger 18.5 10.0 57 31 33 24.1 99.31     Mostly Cloudy
20:00 Legend Double Dagger 17.2 9.5 60 31 29 24.1 99.34     LegendNANA
21:00 Legend Double Dagger 16.4 9.6 64 30 20 24.1 99.37     LegendNANA
22:00 Legend Double Dagger 15.9 9.3 65 29 17 24.1 99.40     Mostly Cloudy
23:00 Legend Double Dagger 15.4 8.7 64 32 23 24.1 99.42     LegendNANA

Notes on Data Quality.

Legend

  • E = Estimated
  • M = Missing
  • NA = Not Available
  • ‡ = Partner data that is not subject to review by the National Climate Archives
Date modified: